This demonstration page uses our WeatherBlox Daily Observations layout. Learn more.

Left ArrowRight Arrow

39.29038, -76.61219

Hourly Observations for May 10, 2021

Temp ( °F °C ) Dew Point ( °F °C ) Humidity (%) Winds ( mph kmh ) Pressure ( in mb ) Visibility ( mi km ) Precip ( " mm )
12:54 am 00:54 Cloudy 60 15.6 56 13.3 86 86 N N/A 29.68 1005 10 16 N/A
1:54 am 01:54 Mostly Cloudy 58 14.4 55 12.8 90 90 NW 3 6 29.69 1005 10 16 N/A
2:54 am 02:54 Cloudy 60 15.6 54 12.2 80 80 NW 12 19 29.73 1007 10 16 N/A
3:54 am 03:54 Cloudy 61 16.1 51 10.6 70 70 WNW 14 22 29.75 1007 10 16 N/A
4:54 am 04:54 Cloudy 60 15.6 50 10 70 70 NW 9 15 29.79 1009 10 16 N/A
5:54 am 05:54 Mostly Cloudy 57 13.9 46 7.8 67 67 NW 13 20 29.83 1010 10 16 N/A
6:54 am 06:54 Mostly Cloudy 55 12.8 43 6.1 64 64 NNW 9 15 29.87 1012 10 16 N/A
7:54 am 07:54 Mostly Cloudy 54 12.2 43 6.1 67 67 NNW 7 11 29.91 1013 10 16 N/A
8:54 am 08:54 Mostly Cloudy 54 12.2 42 5.6 64 64 NW 15 24 29.94 1014 10 16 N/A
9:54 am 09:54 Mostly Cloudy 55 12.8 40 4.4 57 57 NNW 13 20 29.95 1014 10 16 N/A
10:54 am 10:54 Mostly Cloudy 57 13.9 41 5 55 55 NW 10 17 29.96 1014 10 16 N/A
11:54 am 11:54 Partly Cloudy 62 16.7 43 6.1 50 50 NNW 14 22 29.95 1014 10 16 N/A
12:54 pm 12:54 Partly Cloudy 63 17.2 42 5.6 47 47 N 9 15 29.94 1014 10 16 N/A
1:54 pm 13:54 Partly Cloudy 66 18.9 44 6.7 45 45 N 10 17 29.94 1014 10 16 N/A
2:54 pm 14:54 Partly Cloudy 66 18.9 41 5 40 40 NNW 9 15 29.96 1014 10 16 N/A
3:54 pm 15:54 Mostly Sunny 65 18.3 41 5 42 42 WNW 8 13 29.94 1014 10 16 N/A
4:54 pm 16:54 Mostly Sunny 66 18.9 41 5 40 40 NW 5 7 29.93 1014 10 16 N/A
5:54 pm 17:54 Mostly Sunny 66 18.9 41 5 40 40 VRB 5 7 29.95 1014 10 16 N/A
6:54 pm 18:54 Mostly Sunny 64 17.8 38 3.3 38 38 NW 9 15 29.97 1015 10 16 N/A
7:54 pm 19:54 Mostly Sunny 61 16.1 36 2.2 39 39 NW 3 6 30.00 1016 10 16 N/A
8:54 pm 20:54 Mostly Clear 54 12.2 40 4.4 59 59 W 7 11 30.01 1016 10 16 N/A
9:54 pm 21:54 Mostly Clear 57 13.9 36 2.2 45 45 N N/A 30.04 1017 10 16 N/A
10:54 pm 22:54 Mostly Clear 53 11.7 37 2.8 55 55 W 3 6 30.06 1018 10 16 N/A
11:54 pm 23:54 Mostly Clear 50 10 39 3.9 66 66 N N/A 30.06 1018 10 16 N/A

Powered by AerisWeather